OK1TBF-6 Weather Reports


time (UTC)temp
F
wind
direction
speed
knots
gust
knots
rain 1hr
in
rain 24hr
in
rain mn
in
humidity
%
barometer
mb
20260502232004 58 110 3.5 6.1 0.00 0.00 0.00 43 1010.3
20260502231503 58 111 3.5 6.1 0.00 0.00 0.00 43 1010.3
20260502225503 58 111 3.5 5.2 0.00 0.00 0.00 43 1010.3
20260502224503 59 111 3.5 5.2 0.00 0.00 0.00 42 1010.4
20260502224003 58 111 3.5 5.2 0.00 0.00 0.00 43 1010.5
20260502223503 59 111 3.5 6.1 0.00 0.00 0.00 42 1010.4
20260502223004 59 111 3.5 6.1 0.00 0.00 0.00 42 1010.5
20260502222503 59 111 3.5 6.1 0.00 0.00 0.00 41 1010.5
20260502221504 60 112 3.5 5.2 0.00 0.00 0.00 41 1010.5
20260502221003 60 114 3.5 5.2 0.00 0.00 0.00 40 1010.5
20260502220503 60 118 3.5 6.1 0.00 0.00 0.00 40 1010.5
20260502220005 61 120 3.5 6.1 0.00 0.00 0.00 39 1010.5
20260502215504 61 125 3.5 6.1 0.00 0.00 0.00 39 1010.6
20260502215002 61 127 3.5 6.1 0.00 0.00 0.00 39 1010.6
20260502214503 61 122 3.5 6.1 0.00 0.00 0.00 39 1010.6
20260502214003 61 123 3.5 7.0 0.00 0.00 0.00 39 1010.4
20260502213504 61 126 3.5 7.0 0.00 0.00 0.00 39 1010.6
20260502213003 61 128 3.5 7.0 0.00 0.00 0.00 39 1010.7
20260502212502 61 132 4.3 7.0 0.00 0.00 0.00 38 1010.6
20260502212003 61 135 3.5 7.0 0.00 0.00 0.00 39 1010.6
20260502211503 61 131 3.5 7.0 0.00 0.00 0.00 38 1010.6
20260502211002 61 135 3.5 11.3 0.00 0.00 0.00 38 1010.8
20260502210502 61 139 4.3 11.3 0.00 0.00 0.00 39 1011.0
20260502205003 62 138 3.5 9.6 0.00 0.00 0.00 39 1011.0
20260502204504 62 137 3.5 7.0 0.00 0.00 0.00 39 1010.9
20260502204005 62 136 3.5 9.6 0.00 0.00 0.00 39 1010.9
20260502203004 62 138 4.3 7.0 0.00 0.00 0.00 39 1010.8
20260502202505 62 137 4.3 7.0 0.00 0.00 0.00 39 1011.0
20260502202004 62 138 3.5 9.6 0.00 0.00 0.00 39 1011.0
20260502201505 62 140 3.5 9.6 0.00 0.00 0.00 39 1010.9
20260502200506 63 131 3.5 7.8 0.00 0.00 0.00 38 1011.0
20260502200006 63 132 3.5 5.2 0.00 0.00 0.00 38 1010.9
20260502195507 63 133 3.5 5.2 0.00 0.00 0.00 38 1010.9
20260502195006 63 135 3.5 6.1 0.00 0.00 0.00 38 1010.9
20260502194508 64 133 3.5 7.0 0.00 0.00 0.00 37 1011.0
20260502194007 64 133 3.5 7.0 0.00 0.00 0.00 35 1011.0
20260502193508 65 133 3.5 7.0 0.00 0.00 0.00 35 1010.9
20260502193007 65 133 3.5 3.5 0.00 0.00 0.00 34 1011.0
20260502190508 66 128 2.6 5.2 0.00 0.00 0.00 32 1010.9
20260502190008 66 136 3.5 5.2 0.00 0.00 0.00 32 1010.9
20260502185507 66 136 1.7 3.5 0.00 0.00 0.00 32 1010.7
20260502185008 67 135 2.6 3.5 0.00 0.00 0.00 31 1010.7
20260502184507 67 140 1.7 3.5 0.00 0.00 0.00 31 1010.9
20260502184008 67 143 1.7 3.5 0.00 0.00 0.00 30 1011.0
20260502183507 67 136 1.7 3.5 0.00 0.00 0.00 30 1010.9
20260502183007 67 132 1.7 3.5 0.00 0.00 0.00 29 1010.6
20260502182508 67 135 1.7 3.5 0.00 0.00 0.00 29 1010.8
20260502182007 67 136 1.7 3.5 0.00 0.00 0.00 29 1010.8
20260502181508 68 136 1.7 3.5 0.00 0.00 0.00 28 1010.7
20260502180508 69 158 0.9 1.7 0.00 0.00 0.00 29 1010.6
20260502170506 72 229 0.9 1.7 0.00 0.00 0.00 29 1010.9
20260502164007 72 247 0.0 1.7 0.00 0.00 0.00 28 1011.0
20260502163505 72 267 0.9 1.7 0.00 0.00 0.00 28 1011.0
20260502163007 73 297 0.9 3.5 0.00 0.00 0.00 32 1011.2
20260502162507 72 311 0.9 3.5 0.00 0.00 0.00 28 1011.1
20260502161506 72 321 1.7 5.2 0.00 0.00 0.00 30 1011.3
20260502161006 71 299 0.9 5.2 0.00 0.00 0.00 29 1011.5
20260502160507 72 263 1.7 3.5 0.00 0.00 0.00 32 1011.4
20260502152006 72 256 1.7 5.2 0.00 0.00 0.00 31 1011.8
20260502151005 71 274 2.6 7.0 0.00 0.00 0.00 31 1011.9
20260502150506 72 296 0.9 5.2 0.00 0.00 0.00 30 1012.1
20260502130459 71 198 3.5 7.0 0.00 0.00 0.00 33 1013.3
20260502123459 69 257 3.5 7.0 0.00 0.00 0.00 31 1013.5
20260502122958 71 269 1.7 7.0 0.00 0.00 0.00 33 1013.7
20260502122458 70 265 2.6 7.0 0.00 0.00 0.00 33 1013.5
20260502121958 71 161 0.0 3.5 0.00 0.00 0.00 34 1013.8
20260502121457 71 198 0.0 5.2 0.00 0.00 0.00 33 1013.7
20260502120958 69 229 2.6 7.0 0.00 0.00 0.00 33 1013.8
20260502120458 69 261 3.5 7.0 0.00 0.00 0.00 34 1014.0
20260502115458 69 294 2.6 7.8 0.00 0.00 0.00 33 1014.1
20260502114957 69 269 3.5 6.1 0.00 0.00 0.00 34 1014.1
20260502114457 69 257 2.6 6.1 0.00 0.00 0.00 34 1014.2
20260502113957 69 210 2.6 5.2 0.00 0.00 0.00 36 1014.0
20260502113457 69 290 3.5 5.2 0.00 0.00 0.00 33 1014.3
20260502112958 68 314 0.9 6.1 0.00 0.00 0.00 32 1014.3
20260502112457 69 325 2.6 6.1 0.00 0.00 0.00 34 1014.3
20260502111958 70 99 0.9 5.2 0.00 0.00 0.00 31 1014.4
20260502110957 68 133 1.7 6.1 0.00 0.00 0.00 32 1014.6
20260502110457 68 246 1.7 5.2 0.00 0.00 0.00 37 1014.6
20260502105958 67 272 1.7 5.2 0.00 0.00 0.00 37 1014.6
20260502105457 67 281 0.9 7.0 0.00 0.00 0.00 37 1014.7
20260502104957 68 269 2.6 7.0 0.00 0.00 0.00 35 1014.8
20260502104457 67 267 5.2 7.0 0.00 0.00 0.00 37 1014.9
20260502103958 67 249 1.7 6.1 0.00 0.00 0.00 39 1015.0
20260502103456 67 210 1.7 3.5 0.00 0.00 0.00 39 1015.0
20260502102957 66 219 0.9 5.2 0.00 0.00 0.00 39 1014.9
20260502101956 66 293 2.6 7.0 0.00 0.00 0.00 41 1015.1
20260502100958 66 308 2.6 5.2 0.00 0.00 0.00 40 1015.0
20260502100457 65 320 3.5 5.2 0.00 0.00 0.00 41 1015.2
20260502091456 64 210 0.9 5.2 0.00 0.00 0.00 44 1015.7
20260502090457 65 242 2.6 6.1 0.00 0.00 0.00 45 1015.7
20260502071459 62 81 1.7 3.5 0.00 0.00 0.00 54 1016.3
20260502070959 61 90 0.0 3.5 0.00 0.00 0.00 53 1016.2
20260502070459 60 92 2.6 3.5 0.00 0.00 0.00 51 1016.2
20260502065959 60 94 2.6 3.5 0.00 0.00 0.00 50 1016.1
20260502065459 60 93 1.7 5.2 0.00 0.00 0.00 52 1016.3
20260502064500 58 87 3.5 6.1 0.00 0.00 0.00 56 1016.1
20260502064000 57 90 3.5 6.1 0.00 0.00 0.00 56 1016.2
20260502063459 57 90 4.3 6.1 0.00 0.00 0.00 58 1016.1
20260502062959 56 90 4.3 6.1 0.00 0.00 0.00 58 1016.2
20260502062459 56 90 1.7 3.5 0.00 0.00 0.00 60 1016.3
20260502062001 57 90 1.7 3.5 0.00 0.00 0.00 62 1016.3
20260502061000 57 90 0.9 1.7 0.00 0.00 0.00 57 1016.3
20260502060501 56 90 0.0 3.5 0.00 0.00 0.00 59 1016.5
20260502060001 55 93 0.0 3.5 0.00 0.00 0.00 62 1016.4
20260502055501 54 93 1.7 3.5 0.00 0.00 0.00 62 1016.4
20260502055000 54 90 1.7 5.2 0.00 0.00 0.00 62 1016.2
20260502054500 53 90 2.6 5.2 0.00 0.00 0.00 62 1016.1
20260502054000 53 90 3.5 5.2 0.00 0.00 0.00 63 1016.1
20260502053502 53 91 1.7 3.5 0.00 0.00 0.00 64 1016.2
20260502053002 53 103 1.7 3.5 0.00 0.00 0.00 61 1016.2
20260502052502 53 111 1.7 1.7 0.00 0.00 0.00 65 1016.3
20260502052000 52 111 0.0 1.7 0.00 0.00 0.00 65 1016.1
20260502051501 52 99 0.9 7.0 0.00 0.00 0.00 66 1016.2
20260502050501 50 93 5.2 7.8 0.00 0.00 0.00 66 1016.2
20260502050002 50 90 7.0 7.8 0.00 0.00 0.00 66 1016.0
20260502045501 49 90 7.0 7.8 0.00 0.00 0.00 66 1015.9
20260502044501 49 90 5.2 7.0 0.00 0.00 0.00 66 1016.0
20260502042501 51 93 5.2 7.0 0.00 0.00 0.00 62 1015.9
20260502042003 53 90 6.1 6.1 0.00 0.00 0.00 59 1015.8
20260502041502 53 90 4.3 6.1 0.00 0.00 0.00 58 1016.0
20260502041002 53 90 5.2 6.1 0.00 0.00 0.00 59 1015.8
20260502040503 52 90 5.2 6.1 0.00 0.00 0.00 59 1015.7
20260502035503 52 90 6.1 7.0 0.00 0.00 0.00 60 1015.8
20260502035003 52 90 7.0 7.8 0.00 0.00 0.00 61 1015.8
20260502034502 52 90 7.0 7.8 0.00 0.00 0.00 60 1015.9
20260502034002 52 91 6.1 7.0 0.00 0.00 0.00 61 1015.8
20260502033503 52 90 5.2 7.0 0.00 0.00 0.00 61 1016.0
20260502033003 52 93 6.1 7.0 0.00 0.00 0.00 60 1015.8
20260502032504 52 93 5.2 7.0 0.00 0.00 0.00 61 1015.9
20260502032003 52 90 5.2 7.0 0.00 0.00 0.00 60 1015.8
20260502031504 52 90 6.1 7.0 0.00 0.00 0.00 60 1015.9
20260502031003 52 90 6.1 7.0 0.00 0.00 0.00 60 1015.9
20260502030005 51 92 5.2 7.0 0.00 0.00 0.00 61 1016.0
20260502025504 51 92 5.2 7.0 0.00 0.00 0.00 61 1015.9
20260502025005 50 90 5.2 6.1 0.00 0.00 0.00 63 1016.0
20260502024503 50 90 5.2 6.1 0.00 0.00 0.00 64 1016.0
20260502024004 50 96 3.5 3.5 0.00 0.00 0.00 65 1016.0
20260502023505 50 112 0.9 1.7 0.00 0.00 0.00 63 1016.3
20260502023004 50 112 0.0 1.7 0.00 0.00 0.00 64 1016.2
20260502022504 50 112 0.0 1.7 0.00 0.00 0.00 65 1016.2
20260502022004 49 96 0.0 6.1 0.00 0.00 0.00 65 1016.1
20260502021504 49 91 0.0 6.1 0.00 0.00 0.00 66 1016.1
20260502021005 51 90 4.3 6.1 0.00 0.00 0.00 61 1016.1
20260502020505 52 90 5.2 6.1 0.00 0.00 0.00 60 1016.1
20260502020006 52 90 4.3 6.1 0.00 0.00 0.00 60 1015.9
20260502015505 52 90 5.2 6.1 0.00 0.00 0.00 60 1016.2
20260502015005 52 90 3.5 6.1 0.00 0.00 0.00 58 1016.1
20260502014505 53 90 5.2 6.1 0.00 0.00 0.00 59 1016.1
20260502014006 52 90 4.3 6.1 0.00 0.00 0.00 59 1016.1
20260502012507 53 90 6.1 7.0 0.00 0.00 0.00 58 1016.2
20260502012006 52 91 6.1 7.0 0.00 0.00 0.00 59 1016.1
20260502011505 52 92 6.1 7.0 0.00 0.00 0.00 59 1016.4
20260502011005 52 91 6.1 7.0 0.00 0.00 0.00 60 1016.2
20260502010505 52 90 5.2 7.0 0.00 0.00 0.00 59 1016.2
20260502005506 51 93 5.2 6.1 0.00 0.00 0.00 60 1016.4
20260502005006 51 96 4.3 6.1 0.00 0.00 0.00 61 1016.2
20260502004506 51 93 4.3 6.1 0.00 0.00 0.00 61 1016.4
20260502004007 51 91 4.3 6.1 0.00 0.00 0.00 61 1016.3
20260502003007 53 90 4.3 6.1 0.00 0.00 0.00 58 1016.4
20260502002507 53 90 5.2 6.1 0.00 0.00 0.00 57 1016.4
20260502001506 53 90 4.3 5.2 0.00 0.00 0.00 56 1016.4
20260502001007 53 90 3.5 5.2 0.00 0.00 0.00 57 1016.4
20260502000009 53 100 3.5 6.1 0.00 0.00 0.00 56 1016.3
20260501235506 54 102 3.5 6.1 0.00 0.00 0.00 56 1016.4
20260501235008 54 102 3.5 7.0 0.00 0.00 0.00 56 1016.5
20260501234508 54 98 3.5 7.0 0.00 0.00 0.00 56 1016.3
20260501234009 54 91 4.3 6.1 0.00 0.00 0.00 55 1016.4
20260501233507 54 91 4.3 6.1 0.00 0.00 0.00 55 1016.5
20260501233008 55 95 4.3 5.2 0.00 0.00 0.00 53 1016.5